Regional Weather Roundup
Issued by NWS

Home | Current Version | Previous Version | Graphics & Text | Print | Product List | Glossary On
Versions: 1 2 3 4 5 6 7 8 9 10 11 12 13 14 15 16 17 18 19 20 21 22 23 24 25 26 27 28 29 30 31 32 33 34 35 36 37 38 39 40 41 42 43 44 45 46 47 48 49 50
000
ASUS43 KLSX 231959
RWRMO

WEATHER SUMMARY FOR MISSOURI
NATIONAL WEATHER SERVICE SPRINGFIELD MO
300 PM CDT WED JUL 23 2014

NOTE: "FAIR" INDICATES FEW OR NO CLOUDS BELOW 12,000 FEET WITH NO
       SIGNIFICANT WEATHER AND/OR OBSTRUCTIONS TO VISIBILITY.
       CURRENT SKY AND/OR WEATHER CONDITIONS ARE NOT AVAILABLE FOR
       CHILLICOTHE AND FARMINGTON.

MOZ001>031-035>038-043-044-053-054-232100-
...NORTHERN AND WESTERN MISSOURI...

CITY           SKY/WX    TMP DP  RH WIND       PRES   REMARKS
KANSAS CTY INT PTSUNNY   85  66  53 NE12      30.14F
KANSAS C DTWN  SUNNY     88  65  46 N14       30.12F HX  90
LEE`S SUMMIT   SUNNY     87  64  46 N12G22    30.14F
ST JOSEPH      SUNNY     85  66  53 NE9G17    30.15F
CHILLICOTHE      N/A     87  62  43 N8        30.14F

$$
MOZ066>068-077>081-088>096-101>105-232100-
...SOUTHWEST MISSOURI...

CITY           SKY/WX    TMP DP  RH WIND       PRES   REMARKS
SPRINGFIELD    MOSUNNY   91  74  57 N21G28    30.05F HX 100
JOPLIN         CLOUDY    79  70  74 NW12      30.12F

$$
MOZ032>034-039>042-045>050-055>058-069>072-232100-
...CENTRAL MISSOURI...

CITY           SKY/WX    TMP DP  RH WIND       PRES   REMARKS
COLUMBIA       MOSUNNY   88  66  48 N16G23    30.10F HX  90
JEFFERSON CITY MOSUNNY   85  67  54 N15G23    30.07F
ROLLA          MOSUNNY   89  66  46 N12       30.05F HX  91
SEDALIA        MOSUNNY   87  68  52 N14       30.12F HX  90
OSAGE BEACH    SUNNY     90  68  48 NW10      30.06S HX  93

$$
MOZ051-052-059>065-232100-
...EAST CENTRAL MISSOURI...

CITY           SKY/WX    TMP DP  RH WIND       PRES   REMARKS
ST LOUIS INTL  PTSUNNY   83  68  60 N14       30.07S
SPIRIT OF STL  PTSUNNY   85  69  58 NE13G22   30.06F
ST CHARLES     CLOUDY    82  68  62 NE13      30.07S

$$
MOZ072>076-082>087-097>100-106>115-232100-
...SOUTH CENTRAL AND SOUTHEAST MISSOURI...

CITY           SKY/WX    TMP DP  RH WIND       PRES   REMARKS
CAPE GIRARDEAU CLOUDY    72  69  90 W8        30.00S FOG
FARMINGTON     PTSUNNY   84  73  70 CALM      30.06R HX  91
POPLAR BLUFF   CLOUDY    70  65  84 S7        29.99F THUNDER
WEST PLAINS    PTSUNNY   79  64  60 CALM      30.02F

$$



USA.gov is the U.S. government's official web portal to all federal, state and local government web resources and services.